Galesburg, IL

12:50 AM CST on February 20, 2017 (GMT -0600)
Galesburg Municipal

Weather History for KGBG - February, 2012

Change the Weather History Date:

Friday, February 17, 2012

  Actual Average Record
Temperature  
Mean Temperature 41 °F -  
Max Temperature 55 °F 34 °F 71 °F (2017)
Min Temperature 27 °F 19 °F -19 °F (1958)
Degree Days  
Heating Degree Days 24    
Moisture  
Dew Point 27 °F    
Average Humidity 64    
Maximum Humidity 86    
Minimum Humidity 34    
Precipitation  
Precipitation 0.00 in - - ()
Sea Level Pressure  
Sea Level Pressure 30.10 in    
Wind  
Wind Speed 7 mph (SW)    
Max Wind Speed 22 mph    
Max Gust Speed 29 mph    
Visibility 10 miles    
Events      
Averages and records for this station are not official NWS values.
T = Trace of Precipitation, MM = Missing Value Source: NWS Daily Summary

Daily Weather History Graph

Daily Weather History Graph

Search for Another Location

Airport or City:

Trip Planner

Search our weather history database for the weather conditions in past years. The results will help you decide how hot, cold, wet, or windy it might be!

Date:

Astronomy

Feb. 17, 2012 Rise Set
Actual Time 6:53 AM CST 5:38 PM CST
Civil Twilight 6:25 AM CST 6:06 PM CST
Nautical Twilight 5:53 AM CST 6:38 PM CST
Astronomical Twilight 5:22 AM CST 7:10 PM CST
Moon 3:46 AM CST (2/17) 1:29 PM CST (2/17)
Length of Visible Light 11h 40m
Length of Day
10h 44m
Waning Crescent, 19% of the Moon is Illuminated
Feb 17
Waning Crescent
Feb 21
New
Feb 29
First Quarter
Mar 8
Full
Mar 14
Last Quarter

Hourly Weather History & Observations

Time (CST) Temp. Windchill Dew Point Humidity Pressure Visibility Wind Dir Wind Speed Gust Speed Precip Events Conditions
12:15 AM 32.2 °F 26.7 °F 23.9 °F 72% 30.19 in 10.0 mi WSW 5.8 mph - N/A   Clear
12:35 AM 32.0 °F 25.6 °F 23.7 °F 71% 30.19 in 10.0 mi WSW 6.9 mph - N/A   Clear
12:55 AM 32.0 °F 27.5 °F 23.9 °F 72% 30.19 in 10.0 mi West 4.6 mph - N/A   Clear
1:15 AM 32.0 °F 28.7 °F 23.4 °F 70% 30.19 in 10.0 mi West 3.5 mph - N/A   Clear
1:35 AM 31.8 °F 28.5 °F 23.9 °F 73% 30.19 in 10.0 mi West 3.5 mph - N/A   Clear
1:55 AM 30.0 °F - 23.4 °F 76% 30.18 in 10.0 mi Calm Calm - N/A   Clear
2:15 AM 29.3 °F - 23.9 °F 80% 30.17 in 10.0 mi Calm Calm - N/A   Clear
2:35 AM 28.4 °F - 23.0 °F 80% 30.17 in 10.0 mi Calm Calm - N/A   Clear
2:55 AM 28.4 °F - 24.3 °F 84% 30.16 in 10.0 mi Calm Calm - N/A   Clear
3:15 AM 28.2 °F - 23.5 °F 83% 30.15 in 10.0 mi Calm Calm - N/A   Clear
3:35 AM 27.5 °F - 23.5 °F 85% 30.15 in 10.0 mi Calm Calm - N/A   Clear
3:55 AM 27.1 °F - 23.4 °F 86% 30.15 in 10.0 mi Calm Calm - N/A   Scattered Clouds
4:15 AM 27.3 °F - 23.7 °F 86% 30.14 in 10.0 mi Calm Calm - N/A   Clear
4:35 AM 27.3 °F 22.0 °F 23.7 °F 86% 30.14 in 10.0 mi SSE 4.6 mph - N/A   Clear
4:55 AM 30.2 °F 24.3 °F 24.8 °F 80% 30.15 in 10.0 mi SSE 5.8 mph - N/A   Mostly Cloudy
5:15 AM 30.9 °F 26.2 °F 24.8 °F 78% 30.16 in 10.0 mi South 4.6 mph - N/A   Overcast
5:35 AM 32.0 °F 27.5 °F 25.0 °F 75% 30.16 in 10.0 mi SSE 4.6 mph - N/A   Overcast
5:55 AM 32.2 °F 26.7 °F 25.3 °F 76% 30.16 in 10.0 mi South 5.8 mph - N/A   Overcast
6:15 AM 32.0 °F 26.4 °F 24.6 °F 74% 30.15 in 10.0 mi SSE 5.8 mph - N/A   Overcast
6:35 AM 32.0 °F 27.5 °F 24.4 °F 74% 30.15 in 10.0 mi SSE 4.6 mph - N/A   Overcast
6:55 AM 32.0 °F 27.5 °F 24.8 °F 75% 30.15 in 10.0 mi SE 4.6 mph - N/A   Overcast
7:15 AM 32.2 °F 27.7 °F 24.4 °F 73% 30.14 in 10.0 mi SE 4.6 mph - N/A   Overcast
7:35 AM 32.7 °F 27.3 °F 24.6 °F 72% 30.13 in 10.0 mi SE 5.8 mph - N/A   Mostly Cloudy
7:55 AM 34.2 °F 29.0 °F 25.0 °F 69% 30.14 in 10.0 mi SE 5.8 mph - N/A   Scattered Clouds
8:15 AM 35.6 °F 29.9 °F 25.7 °F 67% 30.14 in 10.0 mi SE 6.9 mph - N/A   Overcast
8:35 AM 36.3 °F 30.1 °F 26.6 °F 68% 30.15 in 10.0 mi SSE 8.1 mph - N/A   Overcast
8:55 AM 37.8 °F 31.8 °F 27.0 °F 65% 30.14 in 10.0 mi SSE 8.1 mph - N/A   Scattered Clouds
9:15 AM 40.8 °F 35.6 °F 27.3 °F 59% 30.14 in 10.0 mi SSE 8.1 mph - N/A   Scattered Clouds
9:35 AM 41.4 °F 35.7 °F 27.3 °F 57% 30.13 in 10.0 mi SSE 9.2 mph - N/A   Mostly Cloudy
9:55 AM 43.3 °F 37.7 °F 28.6 °F 56% 30.12 in 10.0 mi SSE 10.4 mph - N/A   Mostly Cloudy
10:15 AM 45.9 °F 40.4 °F 28.4 °F 51% 30.11 in 10.0 mi South 11.5 mph 18.4 mph N/A   Scattered Clouds
10:35 AM 46.6 °F - 29.1 °F 51% 30.10 in 10.0 mi South 15.0 mph 20.7 mph N/A   Clear
10:55 AM 48.0 °F - 29.7 °F 49% 30.10 in 10.0 mi South 16.1 mph - N/A   Clear
11:15 AM 48.9 °F - 30.6 °F 49% 30.10 in 10.0 mi South 17.3 mph 21.9 mph N/A   Clear
11:35 AM 50.0 °F - 30.9 °F 48% 30.09 in 10.0 mi South 17.3 mph - N/A   Scattered Clouds
11:55 AM 51.3 °F - 31.1 °F 46% 30.08 in 10.0 mi South 17.3 mph - N/A   Clear
12:15 PM 52.9 °F - 27.0 °F 37% 30.07 in 10.0 mi South 20.7 mph 26.5 mph N/A   Clear
12:35 PM 53.2 °F - 27.7 °F 37% 30.05 in 10.0 mi SSW 19.6 mph - N/A   Clear
1:15 PM 54.7 °F - 27.1 °F 35% 30.04 in 10.0 mi SSW 21.9 mph 28.8 mph N/A   Scattered Clouds
1:35 PM 55.0 °F - 26.8 °F 34% 30.03 in 10.0 mi SSW 16.1 mph 26.5 mph N/A   Clear
1:55 PM 54.5 °F - 28.4 °F 37% 30.03 in 10.0 mi SSW 18.4 mph 25.3 mph N/A   Clear
2:15 PM 54.5 °F - 29.7 °F 39% 30.02 in 10.0 mi SW 15.0 mph 26.5 mph N/A   Clear
2:35 PM 55.2 °F - 28.9 °F 37% 30.02 in 10.0 mi SW 16.1 mph 23.0 mph N/A   Clear
2:55 PM 55.2 °F - 27.3 °F 34% 30.02 in 10.0 mi SW 17.3 mph 24.2 mph N/A   Scattered Clouds
3:15 PM 55.4 °F - 28.9 °F 36% 30.02 in 10.0 mi SW 16.1 mph 21.9 mph N/A   Mostly Cloudy
3:35 PM 54.5 °F - 29.1 °F 38% 30.02 in 10.0 mi SW 16.1 mph 21.9 mph N/A   Mostly Cloudy
3:55 PM 53.6 °F - 30.2 °F 41% 30.02 in 10.0 mi SW 10.4 mph 16.1 mph N/A   Overcast
4:15 PM 53.6 °F - 30.6 °F 41% 30.02 in 10.0 mi SW 9.2 mph - N/A   Overcast
4:35 PM 53.1 °F - 31.5 °F 44% 30.02 in 10.0 mi WSW 8.1 mph - N/A   Overcast
4:55 PM 50.4 °F - 34.0 °F 53% 30.03 in 10.0 mi West 10.4 mph - N/A   Overcast
5:15 PM 49.3 °F - 34.0 °F 56% 30.03 in 10.0 mi West 6.9 mph - N/A   Overcast
5:35 PM 45.5 °F 42.5 °F 33.3 °F 62% 30.04 in 10.0 mi West 5.8 mph - N/A   Scattered Clouds
5:55 PM 42.4 °F 38.1 °F 32.5 °F 68% 30.04 in 10.0 mi West 6.9 mph - N/A   Clear
6:15 PM 40.6 °F 36.7 °F 31.1 °F 69% 30.05 in 10.0 mi West 5.8 mph - N/A   Clear
6:35 PM 40.1 °F 36.9 °F 29.8 °F 67% 30.05 in 10.0 mi WNW 4.6 mph - N/A   Clear
6:55 PM 38.5 °F 35.0 °F 29.3 °F 70% 30.06 in 10.0 mi WNW 4.6 mph - N/A   Clear
7:15 PM 38.5 °F 36.1 °F 28.8 °F 68% 30.06 in 10.0 mi WNW 3.5 mph - N/A   Clear
7:35 PM 35.8 °F 30.1 °F 28.0 °F 73% 30.06 in 10.0 mi WNW 6.9 mph - N/A   Clear
7:55 PM 37.8 °F 32.5 °F 28.0 °F 68% 30.06 in 10.0 mi West 6.9 mph - N/A   Clear
8:15 PM 38.5 °F 33.4 °F 28.2 °F 67% 30.07 in 10.0 mi WNW 6.9 mph - N/A   Clear
8:35 PM 37.4 °F 32.1 °F 27.7 °F 68% 30.08 in 10.0 mi West 6.9 mph - N/A   Clear
8:55 PM 37.6 °F 31.6 °F 28.0 °F 68% 30.08 in 10.0 mi West 8.1 mph - N/A   Clear
9:15 PM 36.1 °F 31.4 °F 27.7 °F 71% 30.09 in 10.0 mi WNW 5.8 mph - N/A   Clear
9:35 PM 36.0 °F 30.3 °F 28.0 °F 73% 30.09 in 10.0 mi WNW 6.9 mph - N/A   Clear
9:55 PM 35.8 °F 30.9 °F 27.5 °F 72% 30.09 in 10.0 mi WNW 5.8 mph - N/A   Clear
10:15 PM 34.9 °F 29.9 °F 27.3 °F 74% 30.10 in 10.0 mi WNW 5.8 mph - N/A   Clear
10:35 PM 35.1 °F 30.1 °F 27.1 °F 73% 30.10 in 10.0 mi WNW 5.8 mph - N/A   Clear
10:55 PM 34.9 °F 29.0 °F 27.1 °F 73% 30.10 in 10.0 mi WNW 6.9 mph - N/A   Clear
11:15 PM 33.8 °F 28.6 °F 26.6 °F 75% 30.10 in 10.0 mi WNW 5.8 mph - N/A   Clear
11:35 PM 32.9 °F 27.5 °F 26.2 °F 76% 30.11 in 10.0 mi WNW 5.8 mph - N/A   Clear
11:55 PM 32.9 °F 28.5 °F 26.1 °F 76% 30.11 in 10.0 mi WNW 4.6 mph - N/A   Clear